Regional Weather Roundup
Issued by NWS

Home | Current Version | Previous Version | Text Only | Print | Product List | Glossary Off
Versions: 1 2 3 4 5 6 7 8 9 10 11 12 13 14 15 16 17 18 19 20 21 22 23 24 25 26 27 28 29 30 31 32 33 34 35 36 37 38 39 40 41 42 43 44 45 46 47 48 49 50

000
ASUS43 KDTX 221901
RWRMI
MICHIGAN HOURLY REGIONAL WEATHER ROUNDUP
NATIONAL WEATHER SERVICE DETROIT/PONTIAC MI
300 PM EDT THU JUN 22 2017

NOTE: "FAIR" INDICATES FEW OR NO CLOUDS BELOW 12,000 FEET WITH NO
SIGNIFICANT WEATHER AND/OR OBSTRUCTION TO VISIBILITY.

MIZ047>049-052>055-059>063-066>070-074>076-081>083-222000-
SOUTHEAST LOWER MICHIGAN

CITY           SKY/WX    TMP DP  RH WIND       PRES   REMARKS
ADRIAN         SUNNY     89  68  49 SW21G29   29.86F HX  93
ALMA           PTSUNNY   82  68  62 SW7       29.81R
ANN ARBOR      PTSUNNY   85  67  54 S14G22    29.83F
BAD AXE        CLOUDY    80  69  67 SW8       29.80F
CARO           MOSUNNY   83  70  64 SW9       29.79S
DETROIT CITY   CLOUDY    86  67  52 SW15G23   29.82F
DETROIT        CLOUDY    82  69  64 SW14      29.84F
FLINT          MOSUNNY   90  63  40 W13G22    29.80F HX  91
GROSSE ILE     CLOUDY    81  70  68 S15       29.84F
HILLSDALE      MOSUNNY   82  64  54 SW16G26   29.86F
HOWELL         SUNNY     85  58  39 SW14G24   29.82S

CITY           SKY/WX    TMP DP  RH WIND       PRES   REMARKS
JACKSON        SUNNY     86  64  47 S18       29.84F
LAMBERTVILLE   SUNNY     85  67  55 SW8G18    29.87F
LANSING        SUNNY     89  60  37 SW17      29.82R
LAPEER         FAIR      87  66  49 W8        29.80
MASON          SUNNY     87  62  42 SW12G18   29.82S
MONROE         MOSUNNY   87  62  43 SW17G24   29.84F
MT. CLEMENS    PTSUNNY   88  67  49 SW20G29   29.79F HX  90
PONTIAC        PTSUNNY   85  66  53 SW14G23   29.81F
PORT HOPE        N/A     81  68  64 SW9       29.76F
PORT HURON     MOSUNNY   81  66  61 S9        29.82F
TRI CITIES     MOSUNNY   84  70  62 SW14G24   29.78F
MIDLAND        FAIR      83  68  61 SW7       29.77F
TROY           MOSUNNY   87  62  43 S17G25    29.83F
SAGINAW HB     CLOUDY    86  64  48 SW10      29.78F
$$
MIZ043>046-050>051-056>058-064>065-071>073-077>080-222000-
SOUTHWEST LOWER MICHIGAN

CITY           SKY/WX    TMP DP  RH WIND       PRES   REMARKS
BATTLE CREEK   MOSUNNY   86  67  52 SW20G25   29.85S
BENTON HARBOR  PTSUNNY   86  65  49 SW14G24   29.83R
BIG RAPIDS     PTSUNNY   77  65  64 SW13G25   29.79F
COLDWATER      MOSUNNY   85  65  52 SW14G30   29.86S
FREMONT        FAIR      79  65  63 SW16G23   29.80S
HOLLAND        PTSUNNY   84  64  50 SW20G28   29.82S
GRAND RAPIDS   CLOUDY    86  67  52 W17       29.81R
IONIA          FAIR      87  62  41 SW16G25   29.80R
KALAMAZOO      MOSUNNY   86  64  47 SW17G25   29.84S
LUDINGTON      CLOUDY    73  67  79 SW14      29.78R
MARSHALL       SUNNY     85  65  51 SW16G22   29.84S
MOUNT PLEASANT CLOUDY    84  65  53 W13       29.78S
MUSKEGON       CLOUDY    79  67  66 SW17      29.81S
SOUTH HAVEN    PTSUNNY   85  66  52 SW13G25   29.82S
$$
MIZ016>042-222000-
NORTHERN LOWER MICHIGAN

CITY           SKY/WX    TMP DP  RH WIND       PRES   REMARKS
ALPENA         CLOUDY    74  68  81 S16G22    29.73S
BEAVER ISLAND  HVY RAIN  63  62  98 SW14      29.73R
BELLAIRE       CLOUDY    75  66  73 CALM      29.72F
CADILLAC       MOSUNNY   80  68  66 SW17G26   29.78S
CHARLEVOIX     CLOUDY    70  68  93 W9        29.75S
FRANKFORT      CLOUDY    74  64  69 SW9G18    29.74F
GAYLORD        PTSUNNY   75  65  70 SW14      29.75S
GRAYLING       CLOUDY    78  67  68 W10G18    29.77S
HARBOR SPRINGS LGT RAIN  67  67  97 W9G16     29.72S
HOUGHTON LAKE  CLOUDY    79  67  66 SW10      29.78S
MANISTEE       CLOUDY    77  66  68 SW10      29.76R
OSCODA         CLOUDY    74  64  71 SW9       29.75F
PELLSTON       CLOUDY    69  64  84 W7        29.71S
ROGERS CITY    CLOUDY    73  67  81 S3        29.72S
TRAVERSE CITY  CLOUDY    79  66  64 W9G17     29.71F
$$
MIZ007>008-015-222000-
EASTERN UPPER MICHIGAN

CITY           SKY/WX    TMP DP  RH WIND       PRES   REMARKS
KINROSS        CLOUDY    67  63  87 SW8       29.71R
MACKINAC ISLAN CLOUDY    63  63 100 SW9G22    29.71R
NEWBERRY       CLOUDY    69  66  89 S7        29.69R
S. S. MARIE    CLOUDY    66  61  84 SE6       29.68F
MUNISING         N/A     73  64  73 S9        29.69R
$$
MIZ004>006-011>014-085-222000-
CENTRAL UPPER MICHIGAN

CITY           SKY/WX    TMP DP  RH WIND       PRES   REMARKS
MANISTIQUE     CLOUDY    63  60  89 SW3       29.70S
ESCANABA       CLOUDY    73  68  84 SW7       29.70R
MENOMINEE      LGT RAIN  70  68  93 W5        29.73R
SAWYER-GWINN   RAIN      68  64  88 SW7       29.71R
$$
MIZ001>003-009>011-084-222000-
WESTERN UPPER MICHIGAN

CITY           SKY/WX    TMP DP  RH WIND       PRES   REMARKS
IRON MOUNTAIN  LGT RAIN  71  65  81 W8        29.72R
HOUGHTON       CLOUDY    66  56  70 W14       29.66S
COPPER HARBOR    N/A     59  54  83 N13       29.64S
IRONWOOD       CLOUDY    68  50  52 SW5       29.70F
$$

ABBREVIATIONS USED IN REMARKS
   TC - TEMPERATURE IN CELSIUS
  WCI - WIND CHILL INDEX
   HX - HEAT INDEX
  VSB - VISIBILITY





USA.gov is the U.S. government's official web portal to all federal, state and local government web resources and services.